カタログに戻る

STARLINK-30808

運用中通信VLEO
NORAD 58250·PAYLOAD·🇺🇸 United States

打ち上げ Nov 8, 2023 から Cape Canaveral Space Force Station

Loading…

次のパス (今後24時間)

TLE

最新Source: CelesTrak SupGP

元期: Sep 15, 2026, 01:46 UTC

1 58250C 23171W   26258.07409722  .00074888  00000+0  20301-2 0  2588
2 58250  42.9983 292.0257 0007984  56.1412 189.5656 15.36733700    17

AllMySatでSTARLINK-30808をリアルタイム追跡

Download on the App Store